Location: Adaghas
(31.2259°N, 9.0496°W)
Time: 03:32:25
(UTC+00:00)

Cosmos 1844 Rocket - Pass Details

Date: 18 September 2020
Orbit: 823 x 846 km, 71.0° (Epoch: 23 October)

Event Time Altitude Azimuth Distance (km) Brightness Sun altitude
Rises 19:33:25 0° 176° (S) 3,340 5.7 -12.7°
Reaches altitude 10° 19:36:02 10° 167° (SSE) 2,411 4.8 -13.3°
Maximum altitude 19:40:57 34° 103° (ESE) 1,330 3.2 -14.3°
Drops below altitude 10° 19:45:54 10° 40° (NE) 2,428 4.8 -15.3°
Sets 19:48:32 0° 32° (NNE) 3,367 5.6 -15.9°
